Home   Weather   Boulogne-Billancourt   Past weeks

Flag for France Past Weather in Boulogne-Billancourt, Île-de-France, France — Yesterday and Last 2 Weeks

Now
48 °F

Passing clouds.


Feels Like: 43 °F
Forecast: 40 / 47 °F
Wind: 14 mph from Southwest

Location: Paris-Orly

Current Time: Feb 23, 2017 at 6:06:37 am

Latest Report: Feb 23, 2017 at 5:30 am


Visibility: N/A

Pressure: 29.83 "Hg

Humidity: 82%

Dew Point: 43 °F

Location of Boulogne-BillancourtLocation

Past Weather in Boulogne-Billancourt — Graph

°F

Boulogne-Billancourt Temperature Yesterday

Maximum temperature yesterday: 54 °F (at 1:00 pm)
Minimum temperature yesterday: 50 °F (at 3:30 am)
Average temperature yesterday: 51 °F

High & Low Weather Summary for the Past Weeks

 TemperatureHumidityPressure
High63 °F (Feb 15, 3:30 pm)100% (Feb 16, 9:30 am)30.48 "Hg (Feb 16, 9:30 am)
Low28 °F (Feb 19, 6:00 am)52% (Feb 15, 3:30 pm)29.83 "Hg (Feb 23, 5:00 am)
Average43 °F80%30.21 "Hg
* Reported Feb 8 5:00 am — Feb 23 5:00 am, Boulogne-Billancourt, Weather by CustomWeather, © 2017

Note: Actual official high and low records may vary slightly from our data, if they occured in-between our weather recording intervals... More about our weather records

Advertising

Boulogne-Billancourt Weather History for the Previous 24 Hours

Scroll right to see more
 ConditionsComfort  
Time TempWeatherWind HumidityBarometerVisibility
5:00 am
Thu, Feb 23
48 °FPassing clouds.12 mph82%29.83 "HgN/A
4:30 am48 °FPassing clouds.13 mph82%29.86 "HgN/A
4:00 am48 °FPassing clouds.13 mph76%29.86 "HgN/A
3:30 am48 °FPassing clouds.15 mph76%29.89 "HgN/A
3:00 am50 °FPassing clouds.15 mph71%29.89 "HgN/A
2:30 am50 °FPartly cloudy.13 mph71%29.92 "HgN/A
2:00 am50 °FOvercast.12 mph76%29.92 "HgN/A
1:30 am50 °FOvercast.14 mph76%29.92 "HgN/A
1:00 am50 °FPassing clouds.12 mph76%29.92 "HgN/A
12:30 am50 °FPassing clouds.12 mph76%29.95 "HgN/A
12:00 am50 °FPassing clouds.10 mph76%29.95 "HgN/A
11:30 pm
Wed, Feb 22
50 °FPassing clouds.10 mph76%29.95 "HgN/A
11:00 pm50 °FPassing clouds.10 mph76%29.98 "HgN/A
10:30 pm50 °FPassing clouds.12 mph76%29.98 "HgN/A
10:00 pm50 °FPassing clouds.10 mph76%29.98 "HgN/A
9:30 pm52 °FPassing clouds.10 mph72%29.98 "HgN/A
9:00 pm52 °FPassing clouds.12 mph72%29.98 "HgN/A
8:30 pm52 °FPassing clouds.14 mph72%29.98 "HgN/A
8:00 pm52 °FPassing clouds.12 mph72%29.98 "HgN/A
7:30 pm52 °FPassing clouds.10 mph72%29.98 "HgN/A
7:00 pm52 °FPassing clouds.13 mph72%29.98 "HgN/A
6:30 pm52 °FPassing clouds.14 mph72%30.01 "HgN/A
6:00 pm52 °FPartly sunny.14 mph72%30.01 "HgN/A
5:30 pm54 °FPartly sunny.14 mph67%30.01 "HgN/A
5:00 pm54 °FPartly sunny.15 mph67%30.01 "HgN/A
4:30 pm54 °FPartly sunny.16 mph67%30.01 "HgN/A
4:00 pm54 °FMostly cloudy.20 mph67%30.01 "HgN/A
3:30 pm54 °FMostly cloudy.17 mph72%30.01 "HgN/A
3:00 pm54 °FMostly cloudy.18 mph67%30.01 "HgN/A
2:30 pm54 °FMostly cloudy.15 mph67%30.04 "HgN/A
2:00 pm54 °FPartly sunny.15 mph67%30.04 "HgN/A
1:30 pm54 °FOvercast.17 mph72%30.04 "HgN/A
1:00 pm54 °FPartly sunny.12 mph72%30.04 "HgN/A
12:30 pm52 °FPartly sunny.15 mph72%30.04 "HgN/A
12:00 pm52 °FPartly sunny.13 mph72%30.07 "HgN/A
11:30 am52 °FPartly sunny.14 mph72%30.07 "HgN/A
11:00 am50 °FPartly sunny.14 mph76%30.07 "HgN/A
10:30 am50 °FPartly sunny.12 mph76%30.07 "HgN/A
10:00 am50 °FPartly sunny.13 mph76%30.07 "HgN/A
9:30 am50 °FBroken clouds.14 mph76%30.07 "HgN/A
9:00 am50 °FPartly sunny.12 mph76%30.07 "HgN/A
8:30 am50 °FBroken clouds.13 mph76%30.07 "HgN/A
8:00 am50 °FBroken clouds.12 mph76%30.07 "HgN/A
7:30 am50 °FPassing clouds.10 mph76%30.04 "HgN/A
7:00 am50 °FPassing clouds.13 mph76%30.04 "HgN/A
6:30 am50 °FPassing clouds.12 mph76%30.07 "HgN/A
6:00 am50 °FPassing clouds.10 mph76%30.07 "HgN/A
Weather by CustomWeather, © 2017

See weather overviewHow to use our weather pages